Regional Weather Roundup
Issued by NWS

Home | Current Version | Previous Version | Graphics & Text | Print | Product List | Glossary On
Versions: 1 2 3 4 5 6 7 8 9 10 11 12 13 14 15 16 17 18 19 20 21 22 23 24 25 26 27 28 29 30 31 32 33 34 35 36 37 38 39 40 41 42 43 44 45 46 47 48 49 50
000
ASUS43 KMKX 271511
RWRWI

WISCONSIN REGIONAL WEATHER ROUNDUP
NATIONAL WEATHER SERVICE MILWAUKEE/SULLIVAN WI
1000 AM CDT THU JUL 27 2017

NOTE: "FAIR" INDICATES FEW OR NO CLOUDS BELOW 12,000 FEET WITH NO
SIGNIFICANT WEATHER AND/OR OBSTRUCTIONS TO VISIBILITY.

WIZ001-002-006>008-014>016-023>028-271600-
NORTHWEST WISCONSIN

CITY           SKY/WX    TMP DP  RH WIND       PRES   REMARKS
SUPERIOR ARPT  NOT AVBL
ASHLAND        NOT AVBL
HAYWARD        SUNNY     75  60  59 VRB6      30.10R
SIREN          SUNNY     73  60  64 CALM      30.10S
CUMBERLAND     SUNNY     72  59  64 CALM      30.10R
RICE LAKE      SUNNY     73  61  65 CALM      30.10S
CHETEK         SUNNY     74  62  66 CALM      30.09R
LADYSMITH      SUNNY     75  59  57 E3        30.10S
EAU CLAIRE     SUNNY     75  61  61 NE7       30.06R
MENOMONIE      SUNNY     75  63  65 N5        30.07S
NEW RICHMOND   SUNNY     75  61  61 NE5       30.09S
OSCEOLA        SUNNY     75  63  67 N5        30.12R
$$

WIZ003>005-009-010-017-018-271600-
NORTH CENTRAL WISCONSIN

CITY           SKY/WX    TMP DP  RH WIND       PRES   REMARKS
MANITOWISH WTR SUNNY     72  60  64 NE5       30.10S
ARBOR VITAE    SUNNY     76  62  62 N6        30.09S
WOODRUFF       SUNNY     76  62  62 N6        30.09S
RHINELANDER    SUNNY     74  58  57 E7        30.09S
EAGLE RIVER    SUNNY     72  57  58 E5        30.09S
LAND O LAKES   SUNNY     73  56  53 CALM      30.11S
PHILLIPS       SUNNY     73  61  66 E5        30.09S
TOMAHAWK         N/A     73  57  57 E6        30.09S
MEDFORD        SUNNY     73  60  65 NE7       30.07F
MERRILL        SUNNY     73  61  64 E5        30.07F
$$

WIZ029-030-035-036-043>047-271600-
CENTRAL WISCONSIN

CITY           SKY/WX    TMP DP  RH WIND       PRES   REMARKS
WAUSAU         SUNNY     74  60  61 E12       30.05S
MOSINEE        SUNNY     73  63  68 NE8       30.07S
MARSHFIELD     SUNNY     76  61  59 NE7       30.05S
STEVENS POINT  SUNNY     73  58  59 NE8       30.05S
WAUPACA        SUNNY     78  60  54 N6        30.03S
WAUTOMA        SUNNY     76  61  59 E10       30.03S
WISC RAPIDS    SUNNY     77  61  57 VRB5      30.05F
CAMP DOUGLAS   SUNNY     75  63  64 N6        30.03F
$$

WIZ011>013-019>022-031-037>040-048>050-271600-
NORTHEAST WISCONSIN

CITY           SKY/WX    TMP DP  RH WIND       PRES   REMARKS
ANTIGO         SUNNY     73  58  60 E7        30.08S
SHAWANO        SUNNY     76  61  60 E6        30.05R
OCONTO         SUNNY     74  61  62 NE9       30.03S
STURGEON BAY     N/A     74  63  68 N9        30.03S
GREEN BAY      SUNNY     75  64  68 NE10      30.03R
MANITOWOC      SUNNY     74  59  59 NE9       30.02R
APPLETON       SUNNY     73  59  60 NE9       30.01S
CLINTONVILLE   SUNNY    N/A N/A N/A NE7       30.04R
OSHKOSH        SUNNY     74  63  68 NE13      30.02R
$$

WIZ032>034-041-042-053>061-271600-
SOUTHWEST WISCONSIN

CITY           SKY/WX    TMP DP  RH WIND       PRES   REMARKS
LA CROSSE      SUNNY     78  67  68 W6        30.03S HX  80
SPARTA         SUNNY     74  59  59 NE3       30.05S
VIROQUA        SUNNY     75  63  66 NE6       30.05S
BOSCOBEL       SUNNY     78  64  61 VRB7      30.02R HX  80
PRAIRIE DU CHI SUNNY     77  60  56 NE7       30.01R
PLATTEVILLE    MOSUNNY   76  70  82 NE9       30.02R
$$

WIZ056-057-062-063-064-067-068-271600-
SOUTH CENTRAL WISCONSIN

CITY           SKY/WX    TMP DP  RH WIND       PRES   REMARKS
REEDSBURG      SUNNY     75  64  67 NE10      30.03R
BARABOO/DELLS  SUNNY     74  60  60 NE6       30.03S
LONE ROCK      SUNNY     77  63  61 NE9       30.01R
MINERAL POINT  SUNNY     77  68  73 NE13      30.02R
MADISON        SUNNY     76  63  64 NE12      30.01R
MIDDLETON      SUNNY     77  64  63 NE8       30.02R
WATERTOWN      SUNNY     75  64  66 NE10G17   30.00R
MONROE         CLOUDY    72  68  88 N13       30.00R
JANESVILLE     CLOUDY    75  73  94 NE12      29.98R
$$

WIZ051-052-058>065-066-070>072-271600-
SOUTHEAST WISCONSIN

CITY           SKY/WX    TMP DP  RH WIND       PRES   REMARKS
MILWAUKEE      PTSUNNY   73  68  84 NE16G24   29.98R
WAUKESHA       SUNNY     73  59  60 NE15      30.00S
MILWAUKEE/TIMM SUNNY     75  57  53 NE15G21   30.00R
RACINE         CLOUDY    72  69  90 N9G18     29.99R
KENOSHA        PTSUNNY   75  69  81 N8        29.97R
FOND DU LAC    SUNNY     76  58  53 NE9       30.02R
SHEBOYGAN      SUNNY     74  61  63 NE15      30.01R
WEST BEND      SUNNY     73  61  64 NE13      30.01R
JUNEAU         SUNNY     74  60  61 NE8       30.02S
$$

LSZ147-162-271600-
LAKE SUPERIOR

STATION/POSITION TIME  TEMP    WIND        PRES    WAVE
                       AIR SEA DIR/SP/G            HT/PER
                 (UTC) (F)     (DEG/KT/KT) (MB)    (FT/S)
W MID LAKE BUOY  1450   56 52   70/  6/  8 1018.9R   0
DEVILS ISLAND    1500   64      30/  5/  5 1019.2R
PORT WING        1309   66     260/  1/  5 1018.6
SAXON HARBOR     1440   68     340/  3/  3 1018.3S
$$

LMZ867-665-643>646-271600-
LAKE MICHIGAN

STATION/POSITION TIME  TEMP    WIND        PRES    WAVE
                       AIR SEA DIR/SP/G            HT/PER
                 (UTC) (F)     (DEG/KT/KT) (MB)    (FT/S)
CHAMBERS ISLAND  1440   69      10/ 10/ 12 1016.3S
S GREEN BAY BUOY 1500   69 71   40/ 10/ 14 1016.7
N MID LAKE BUOY  1450   65 66   50/  8/ 10 1017.1R   1/ 3
NORTHPORT PIER   1440   69     340/  6/  7 1016.9R
KEWAUNEE LAKESHO 1442   71      20/  6/ 11 1015.7R
SHEBOYGAN LAKESH 1500   69      10/ 13/ 14 1015.7R
PORT WASHINGTON  1430   74      30/ 14/ 19 1016.3S
ATWATER BUOY     1409   70 69   10/ 14/ 17 1015.0F
MILWAUKEE LAKESH 1450   70      10/ 16/ 18   N/A
S MID LAKE BUOY  1450   70 71   10/ 12/ 14 1013.9R   1
KENOSHA   LAKESH 1500   70      10/ 14/ 17 1014.6
$$

TC  - TEMPERATURE IN CELSIUS
VSB - VISIBILITY IN STATUTE MILES
WCI - WIND CHILL INDEX
HX  - HEAT INDEX





USA.gov is the U.S. government's official web portal to all federal, state and local government web resources and services.